TimePDT,TemperatureF,Dew PointF,Humidity,Sea Level PressureIn,VisibilityMPH,Wind Direction,Wind SpeedMPH,Gust SpeedMPH,PrecipitationIn,Events,Conditions,WindDirDegrees,DateUTC
12:53 AM,54.0,48.0,80,29.66,10.0,South,12.7,21.9,N/A,,Overcast,170,2013-04-05 07:53:00
1:53 AM,55.0,48.0,77,29.67,10.0,SSE,19.6,31.1,N/A,,Overcast,160,2013-04-05 08:53:00
2:53 AM,54.0,46.9,77,29.67,10.0,South,19.6,35.7,N/A,,Overcast,170,2013-04-05 09:53:00
3:53 AM,52.0,46.9,83,29.69,10.0,SSE,13.8,26.5,0.00,Rain,Light Rain,160,2013-04-05 10:53:00
4:53 AM,50.0,46.9,89,29.71,6.0,SSE,17.3,24.2,0.10,Rain,Light Rain,150,2013-04-05 11:53:00
5:24 AM,50.0,48.2,94,29.71,4.0,SSE,16.1,24.2,0.14,Rain,Rain,160,2013-04-05 12:24:00
5:31 AM,50.0,48.2,94,29.71,5.0,SW,11.5,24.2,0.16,Rain,Rain,220,2013-04-05 12:31:00
5:40 AM,50.0,48.2,94,29.71,5.0,South,10.4,17.3,0.18,Rain,Light Rain,170,2013-04-05 12:40:00
5:47 AM,50.0,48.2,94,29.71,6.0,South,12.7,19.6,0.19,Rain,Light Rain,170,2013-04-05 12:47:00
5:53 AM,50.0,48.0,93,29.74,6.0,South,12.7,18.4,0.20,Rain,Light Rain,170,2013-04-05 12:53:00
6:32 AM,48.2,48.2,100,29.73,6.0,South,8.1,-,0.07,Rain,Light Rain,170,2013-04-05 13:32:00
6:41 AM,48.2,48.2,100,29.73,6.0,South,8.1,-,0.08,Rain,Light Rain,170,2013-04-05 13:41:00
6:53 AM,50.0,48.0,93,29.76,6.0,South,8.1,-,0.10,Rain,Light Rain,170,2013-04-05 13:53:00
7:00 AM,50.0,48.2,94,29.74,6.0,South,8.1,-,0.02,Rain,Light Rain,170,2013-04-05 14:00:00
7:09 AM,48.2,48.2,100,29.75,7.0,SSE,8.1,-,0.03,Rain,Light Rain,160,2013-04-05 14:09:00
7:20 AM,48.2,46.4,93,29.75,5.0,SSE,8.1,-,0.05,Rain,Light Rain,160,2013-04-05 14:20:00
7:53 AM,48.9,46.9,93,29.78,6.0,SE,6.9,-,0.11,Rain,Light Rain,140,2013-04-05 14:53:00
8:53 AM,48.9,46.9,93,29.81,10.0,South,8.1,-,0.01,Rain,Light Rain,170,2013-04-05 15:53:00
9:53 AM,48.9,46.9,93,29.82,10.0,South,6.9,-,0.00,,Overcast,170,2013-04-05 16:53:00
10:16 AM,50.0,48.2,94,29.80,10.0,South,9.2,-,0.00,Rain,Light Rain,170,2013-04-05 17:16:00
10:36 AM,50.0,48.2,94,29.81,10.0,South,9.2,-,0.01,Rain,Light Rain,170,2013-04-05 17:36:00
10:53 AM,50.0,48.9,96,29.83,10.0,South,5.8,-,0.01,,Overcast,180,2013-04-05 17:53:00
11:53 AM,51.1,48.9,92,29.84,10.0,Variable,6.9,-,N/A,,Overcast,0,2013-04-05 18:53:00
12:07 PM,51.8,48.2,88,29.82,10.0,SSE,9.2,-,N/A,,Overcast,160,2013-04-05 19:07:00
12:45 PM,51.8,50.0,94,29.81,10.0,South,10.4,-,0.00,Rain,Light Rain,180,2013-04-05 19:45:00
12:53 PM,53.1,51.1,93,29.84,10.0,South,9.2,-,0.00,,Overcast,180,2013-04-05 19:53:00
1:34 PM,55.4,48.2,77,29.82,10.0,South,8.1,-,N/A,,Overcast,180,2013-04-05 20:34:00
1:53 PM,55.0,48.9,80,29.84,10.0,South,4.6,-,N/A,,Overcast,180,2013-04-05 20:53:00
2:17 PM,55.4,48.2,77,29.81,10.0,South,8.1,-,N/A,,Overcast,170,2013-04-05 21:17:00
2:53 PM,57.0,48.0,72,29.84,10.0,South,9.2,-,N/A,,Overcast,170,2013-04-05 21:53:00
3:53 PM,55.9,48.0,75,29.83,10.0,South,5.8,-,N/A,,Overcast,170,2013-04-05 22:53:00
4:03 PM,57.2,46.4,67,29.81,10.0,SSE,10.4,-,N/A,,Overcast,160,2013-04-05 23:03:00
4:53 PM,57.0,46.0,67,29.82,10.0,SSE,11.5,18.4,0.00,,Scattered Clouds,160,2013-04-05 23:53:00
5:53 PM,55.9,46.0,69,29.81,10.0,SE,11.5,21.9,N/A,,Overcast,140,2013-04-06 00:53:00
6:53 PM,54.0,46.0,75,29.79,10.0,SSE,13.8,24.2,N/A,,Overcast,150,2013-04-06 01:53:00
7:53 PM,53.1,45.0,74,29.78,10.0,SSE,13.8,25.3,0.00,,Overcast,150,2013-04-06 02:53:00
8:53 PM,53.1,45.0,74,29.78,10.0,SSE,20.7,26.5,0.01,Rain,Light Rain,150,2013-04-06 03:53:00
9:33 PM,53.6,44.6,72,29.75,10.0,SSE,15.0,27.6,0.00,,Overcast,150,2013-04-06 04:33:00
9:48 PM,53.6,44.6,72,29.76,10.0,SSE,15.0,20.7,0.00,,Overcast,160,2013-04-06 04:48:00
9:53 PM,53.1,44.1,71,29.78,10.0,SSE,13.8,24.2,0.00,,Overcast,160,2013-04-06 04:53:00
10:53 PM,52.0,42.1,69,29.75,10.0,SSE,19.6,33.4,N/A,,Mostly Cloudy,150,2013-04-06 05:53:00
11:53 PM,51.1,42.1,71,29.73,10.0,SSE,17.3,29.9,N/A,,Overcast,150,2013-04-06 06:53:00